Omak, WA

3:52 PM PDT on September 26, 2017 (GMT -0700)
Omak

Weather History for KOMK - June, 2012

Change the Weather History Date:

Wednesday, June 27, 2012

  Actual Average Record
Temperature  
Mean Temperature 59 °F 68 °F  
Max Temperature 74 °F 83 °F 107 °F (2015)
Min Temperature 44 °F 53 °F 35 °F (1965)
Degree Days  
Heating Degree Days 6 1  
Month to date heating degree days 142 67  
Since 1 June heating degree days 142 67  
Since 1 July heating degree days 6707 6340  
Cooling Degree Days 0 4  
Month to date cooling degree days 17 70  
Year to date cooling degree days 21 93  
Since 1 June cooling degree days 17 70  
Growing Degree Days 9 (Base 50)    
Moisture  
Dew Point 44 °F    
Average Humidity 65    
Maximum Humidity 100    
Minimum Humidity 29    
Precipitation  
Precipitation 0.00 in 0.04 in 0.75 in (2001)
Month to date precipitation 1.61 1.13  
Year to date precipitation 7.40 7.88  
Sea Level Pressure  
Sea Level Pressure 29.99 in    
Wind  
Wind Speed 7 mph (SSW)    
Max Wind Speed 18 mph    
Max Gust Speed 23 mph    
Visibility 10 miles    
Events      
T = Trace of Precipitation, MM = Missing Value Source: NWS Daily Summary

Daily Weather History Graph

Daily Weather History Graph

Search for Another Location

Airport or City:

Trip Planner

Search our weather history database for the weather conditions in past years. The results will help you decide how hot, cold, wet, or windy it might be!

Date:

Astronomy

Jun. 27, 2012 Rise Set
Actual Time 4:58 AM PDT 9:03 PM PDT
Civil Twilight 4:16 AM PDT 9:45 PM PDT
Nautical Twilight 3:17 AM PDT 10:44 PM PDT
Astronomical Twilight 1:27 AM PDT 12:32 AM PDT
Moon 2:13 PM PDT (6/27) 12:24 AM PDT (6/27)
Length of Visible Light 17h 28m
Length of Day
16h 05m
First Quarter, 57% of the Moon is Illuminated
Jun 27
First Quarter
Jul 3
Full
Jul 10
Last Quarter
Jul 18
New
Jul 26
First Quarter

Hourly Weather History & Observations

Time (PDT) Temp. Windchill Dew Point Humidity Pressure Visibility Wind Dir Wind Speed Gust Speed Precip Events Conditions
12:53 AM 51.1 °F - 48.0 °F 89% 29.96 in 10.0 mi SSW 5.8 mph - N/A   Clear
1:53 AM 50.0 °F - 46.9 °F 89% 29.96 in 10.0 mi Calm Calm - N/A   Clear
2:53 AM 48.9 °F - 46.0 °F 90% 29.98 in 10.0 mi WNW 3.5 mph - N/A   Clear
3:53 AM 46.0 °F 43.9 °F 44.1 °F 93% 29.99 in 10.0 mi WNW 4.6 mph - N/A   Clear
4:53 AM 45.0 °F 41.8 °F 44.1 °F 97% 30.01 in 10.0 mi West 5.8 mph - N/A   Clear
5:53 AM 48.0 °F - 45.0 °F 89% 30.03 in 10.0 mi WSW 3.5 mph - N/A   Clear
6:53 AM 51.1 °F - 46.0 °F 83% 30.04 in 10.0 mi WSW 3.5 mph - N/A   Clear
7:53 AM 54.0 °F - 46.9 °F 77% 30.04 in 10.0 mi Calm Calm - N/A   Clear
8:53 AM 57.0 °F - 46.0 °F 67% 30.04 in 10.0 mi Calm Calm - N/A   Clear
9:53 AM 60.1 °F - 46.9 °F 62% 30.04 in 10.0 mi South 6.9 mph - N/A   Clear
10:53 AM 64.0 °F - 46.0 °F 52% 30.03 in 10.0 mi SSW 8.1 mph - N/A   Clear
11:53 AM 66.0 °F - 45.0 °F 47% 30.03 in 10.0 mi SSW 6.9 mph - N/A   Partly Cloudy
12:53 PM 69.1 °F - 44.1 °F 40% 30.02 in 10.0 mi SSE 11.5 mph 20.7 mph N/A   Partly Cloudy
1:53 PM 71.1 °F - 42.1 °F 35% 30.01 in 10.0 mi SSE 13.8 mph 19.6 mph N/A   Clear
2:53 PM 73.0 °F - 42.1 °F 33% 29.99 in 10.0 mi SE 17.3 mph 23.0 mph N/A   Clear
3:53 PM 73.0 °F - 39.0 °F 29% 29.99 in 10.0 mi SSE 16.1 mph 23.0 mph N/A   Clear
4:53 PM 73.0 °F - 39.0 °F 29% 29.98 in 10.0 mi SE 13.8 mph - N/A   Clear
5:53 PM 73.9 °F - 39.9 °F 29% 29.96 in 10.0 mi SSE 12.7 mph - N/A   Clear
6:53 PM 72.0 °F - 39.9 °F 31% 29.96 in 10.0 mi SSE 12.7 mph - N/A   Clear
7:53 PM 70.0 °F - 41.0 °F 35% 29.95 in 10.0 mi SE 9.2 mph - N/A   Clear
8:53 PM 64.9 °F - 42.1 °F 43% 29.95 in 10.0 mi SSE 4.6 mph - N/A   Clear
9:53 PM 61.0 °F - 43.0 °F 52% 29.97 in 10.0 mi South 3.5 mph - N/A   Clear
10:53 PM 57.9 °F - 43.0 °F 58% 29.97 in 10.0 mi West 4.6 mph - N/A   Clear
11:53 PM 55.0 °F - 44.1 °F 67% 29.98 in 10.0 mi WSW 3.5 mph - N/A   Clear